Hourly Data Report for September 21, 2015

All times are specified in Local Standard Time (LST). Add 1 hour to adjust for Daylight Saving Time where and when it is observed.

TORONTO INTL A
ONTARIO

43°40'36.000" N
79°37'50.000" W
173.40 m
6158731
71624
YYZ

Download Data

Hourly Data (September 2015)
Hourly Data Report for September 21, 2015
Temp Definition
°C
Dew Point Temp Definition
°C
Rel Hum Definition
%
Wind Dir Definition
10's deg

Wind Spd Definition
km/h
Visibility Definition
km
Stn Press Definition
kPa
Hmdx Definition


Wind Chill Definition


Weather Definition


TIME
00:00 Legend Double Dagger 13.6 7.9 68 36 2 24.1 100.20     LegendNANA
01:00 Legend Double Dagger 12.8 8.5 75 35 7 24.1 100.20     Mostly Cloudy
02:00 Legend Double Dagger 11.7 8.2 79 1 8 24.1 100.19     LegendNANA
03:00 Legend Double Dagger 10.8 8.1 83 1 7 24.1 100.19     LegendNANA
04:00 Legend Double Dagger 11.4 8.1 80 36 5 24.1 100.21     Mostly Cloudy
05:00 Legend Double Dagger 10.9 7.6 80 1 8 24.1 100.25     LegendNANA
06:00 Legend Double Dagger 11.0 7.5 79 2 6 24.1 100.28     LegendNANA
07:00 Legend Double Dagger 11.8 8.1 78 35 5 24.1 100.31     Mostly Cloudy
08:00 Legend Double Dagger 13.9 9.2 73 5 7 24.1 100.34     LegendNANA
09:00 Legend Double Dagger 15.5 8.8 64 5 8 24.1 100.36     LegendNANA
10:00 Legend Double Dagger 17.5 10.5 63 8 9 24.1 100.37     Mostly Cloudy
11:00 Legend Double Dagger 18.5 9.9 57 14 14 24.1 100.36     LegendNANA
12:00 Legend Double Dagger 17.6 10.6 63 8 15 24.1 100.32     LegendNANA
13:00 Legend Double Dagger 18.8 11.0 60 9 18 24.1 100.25     Mostly Cloudy
14:00 Legend Double Dagger 17.8 11.7 67 9 20 24.1 100.22     LegendNANA
15:00 Legend Double Dagger 18.0 11.9 67 9 18 24.1 100.17     LegendNANA
16:00 Legend Double Dagger 18.6 11.5 63 9 18 24.1 100.14     Mostly Cloudy
17:00 Legend Double Dagger 17.5 10.0 61 11 14 24.1 100.16     LegendNANA
18:00 Legend Double Dagger 16.4 7.2 54 9 18 24.1 100.19     LegendNANA
19:00 Legend Double Dagger 15.4 8.7 64 8 12 24.1 100.19     Clear
20:00 Legend Double Dagger 14.1 9.4 73 6 9 24.1 100.22     LegendNANA
21:00 Legend Double Dagger 13.5 8.8 73 5 7 24.1 100.21     LegendNANA
22:00 Legend Double Dagger 13.5 9.0 74 6 9 24.1 100.19     Clear
23:00 Legend Double Dagger 12.2 9.1 81 2 11 24.1 100.17     LegendNANA

Notes on Data Quality.

Legend

  • E = Estimated
  • M = Missing
  • NA = Not Available
  • ‡ = Partner data that is not subject to review by the National Climate Archives
Date modified: